Starlink 2340

operational
NORAD ID: 47882 Int'l Des: 2021-021 Owner: SPXS Country: US Constellation: starlink
LEOCIRCULAR

About Starlink 2340

Description loading...

Live Position

Loading 3D Globe...

Upcoming Passes

Altitude History

Altitude vs Time

uPlot chart will show altitude changes over time

Two-Line Element Set

1 47882U 21021Y 25257.53963316 .00139587 00000-0 20361-2 0 9999
2 47882 53.0449 279.9633 0007653 46.3232 313.8411 15.54707497250698
Epoch: Sep 14, 2025 • Age: 20 hours

Current Status

Altitude 405.3 km
Velocity 7.68 km/s
Sub-Earth Point 52.69°N, 119.03°W
Launch Date Mar 14, 2021
Age 4.5 years
Type internet

Technical Details

Classification Payload
Mass 260.00 kg
Dry Mass 248.00 kg
Total Mass 260.00 kg
Length 0.20 m
Diameter 2.80 m
Span 9.00 m
Shape Box + pan
Manufacturer SPXS
Bus Type Starlink
Phase Status In Orbit
Owner/State SPXS/US

Large Constellations

Loading constellations...